Location: Bodest
(46.3000°N, 22.5667°E)
Time: 11:41:17
(UTC+00:00)

Cosmos 1626 Rocket - Pass Details

Date: 27 May 2022
Orbit: 602 x 631 km, 82.5° (Epoch: 01 July)

Event Time Altitude Azimuth Distance (km) Brightness Sun altitude
Rises 00:52:37 0° 132° (SE) 2,892 6.9 -14.8°
Reaches altitude 10° 00:56:39 10° 95° (E) 1,985 6.6 -14.4°
Maximum altitude 00:57:41 11° 82° (E) 1,935 6.7 -14.3°
Drops below altitude 10° 00:58:44 10° 68° (ENE) 1,985 7.1 -14.2°
Sets 01:02:44 0° 31° (NNE) 2,889 8.9 -13.8°
